{"data":{"norad_id":66835,"epoch":"2026-05-25T02:48:31.013568Z","epoch_age_seconds":58711,"freshness":"FRESH","line1":"1 66835U 25280Q   26145.11702562  .00008827  00000+0  74609-3 0  9990","line2":"2 66835  70.0009 141.7693 0003731 268.7945  91.2786 14.98355375 27521","mean_motion":14.98355375,"eccentricity":0.0003731,"inclination_deg":70.0009,"raan_deg":141.7693,"arg_perigee_deg":268.7945,"mean_anomaly_deg":91.2786,"bstar":0.00074609,"rev_number":2752,"period_min":96.105371531103,"perigee_km":569.3843342667,"apogee_km":574.57050964837,"semimajor_km":6950.1144219575,"source":"CELESTRAK","updated_at":"2026-05-25T13:38:21.336683Z"}}